Back to catalog

CZ-6A DEB

AlivePO
NORAD 64662·DEBRIS·🇨🇳 China

Launched Aug 6, 2024 from Taiyuan Satellite Launch Center

Loading…

Next Passes (next 24 hours)

TLE

FreshSource: Space-Track

Epoch: Sep 14, 2026, 00:10 UTC

1 64662U 24140AFC 26257.00711980  .00000287  00000-0  12713-3 0  9997
2 64662  88.9929 264.4642 0045204 282.3646  77.2487 14.20041303 97060

Track CZ-6A DEB in real time with AllMySat

Download on the App Store